Back to catalog

COSMOS 407

AliveMilitaryLEO
NORAD 5174·PAYLOAD·🇷🇺 Russia

Launched Apr 23, 1971 from Plesetsk Cosmodrome

Loading…

Next Passes (next 24 hours)

TLE

FreshSource: Space-Track

Epoch: Sep 14, 2026, 13:56 UTC

1 05174U 71035A   26257.58117784  .00000074  00000-0  35625-4 0  9992
2 05174  74.0441 306.9485 0017151 107.2273 253.0758 14.34266603893400

Track COSMOS 407 in real time with AllMySat

Download on the App Store